Вернуться в каталог

NOAA 16 DEB

АктивенSSO
NORAD 41540·DEBRIS·🇺🇸 United States

Запущен Sep 21, 2000 с Vandenberg Space Force Base

Loading…

Ближайшие Пролёты (ближайшие 24 часа)

TLE

СвежийSource: Space-Track

Эпоха: Sep 13, 2026, 09:22 UTC

1 41540U 00055NQ  26256.39090830  .00001754  00000-0  86199-3 0  9990
2 41540  98.6933 292.2453 0031049 283.0770  76.6941 14.18705515535918

Отслеживайте NOAA 16 DEB в реальном времени с AllMySat

Download on the App Store